Regional Weather Roundup
Issued by NWS

Home | Current Version | Previous Version | Graphics & Text | Print | Product List | Glossary On
Versions: 1 2 3 4 5 6 7 8 9 10 11 12 13 14 15 16 17 18 19 20 21 22 23 24 25 26 27 28 29 30 31 32 33 34 35 36 37 38 39 40 41 42 43 44 45 46 47 48 49 50
000
ASUS44 KMEG 210300
RWRTN
TENNESSEE HOURLY STATE WEATHER ROUNDUP
NATIONAL WEATHER SERVICE MEMPHIS TN
1000 PM CDT SUN APR 20 2014

TNZ002-004-019-021-049-052-054-088>092-210400-
WEST TENNESSEE

CITY           SKY/WX    TMP DP  RH WIND       PRES   REMARKS
MEMPHIS INTL   MOCLDY    65  50  58 S3        30.11R
NWS MEMPHIS      N/A     62 N/A N/A MISG        N/A
JACKSON        PTCLDY    59  50  72 S3        30.11R
DYERSBURG      PTCLDY    63  45  51 CALM      30.11S
UNION CITY     CLEAR     61  48  63 CALM      30.10S
LEXINGTON      CLEAR     61  46  59 CALM      30.11R
$$

TNZ008-025-027-028-033-062-065-066-210400-
NORTH MIDDLE TENNESSEE

CITY           SKY/WX    TMP DP  RH WIND       PRES   REMARKS
NASHVILLE      PTCLDY    64  44  48 CALM      30.12S
CLARKSVILLE    CLEAR     61  43  51 CALM      30.11S
COOKEVILLE     CLEAR     54  48  82 CALM      30.14R
CROSSVILLE     MOCLDY    60  39  45 CALM      30.18R
$$

TNZ061-075-076-078-094-096-097-210400-
SOUTH MIDDLE TENNESSEE

CITY           SKY/WX    TMP DP  RH WIND       PRES   REMARKS
TULLAHOMA      CLEAR     54  46  76 CALM      30.16R
WINCHESTER     CLEAR     55  48  76 CALM      30.16R
COLUMBIA       CLEAR     59  54  82 CALM      30.11S
$$

TNZ017-018-042-046-047-210400-
NORTHEAST TENNESSEE

CITY           SKY/WX    TMP DP  RH WIND       PRES   REMARKS
TRI CITIES     PTCLDY    57  29  34 CALM      30.18R
ELIZABETHTON   CLEAR     55  28  35 CALM      30.20R
$$

TNZ012-013-036-069-073-074-210400-
CENTRAL EAST TENNESSEE

CITY           SKY/WX    TMP DP  RH WIND       PRES   REMARKS
KNOXVILLE      NOT AVBL
OAK RIDGE      PTCLDY    58  46  64 CALM      30.15R
$$

TNZ083-085-099-210400-
SOUTHEAST TENNESSEE

CITY           SKY/WX    TMP DP  RH WIND       PRES   REMARKS
CHATTANOOGA    PTCLDY    59  48  67 E3        30.15R
$$

SKY/WX REPORTED AS FAIR MEANS FEW OR NO CLOUDS BELOW
12 THOUSAND FEET.




USA.gov is the U.S. government's official web portal to all federal, state and local government web resources and services.